Wind_Speed
12 11 11 11 11 11 11 10 10 11 13 13 12 13 12 11 9 7 7 5 4 6 8 9 9 9 7 7 6 6 6 5 5 5 5 6 7 7 8 9 11 12 13 13
12 11 11 11 11 11 11 11 10 11 13 13 13 12 11 11 8 6 3 3 3 5 7 8 9 9 7 6 5 4 4 3 3 4 5 6 6 7 8 9 10 11 11 11
14 12 11 11 11 11 10 10 11 12 13 13 12 10 10 9 5 4 2 1 3 5 7 7 6 6 6 5 5 5 4 2 2 3 4 4 5 6 8 9 10 10 10 12
13 11 11 11 11 11 10 10 11 12 12 12 11 11 9 8 5 3 1 2 5 5 5 5 5 5 5 6 6 5 4 2 2 2 3 3 5 6 7 9 10 10 11 12
12 11 10 11 11 11 10 10 11 11 11 11 10 10 8 7 4 3 2 4 5 4 5 4 4 5 5 5 6 5 3 1 0 1 2 3 4 6 7 9 10 11 12 13
11 10 10 10 11 11 10 10 10 10 10 9 9 9 7 4 2 2 3 4 5 5 4 5 5 5 5 5 6 5 4 2 1 1 1 3 4 5 7 9 10 12 12 13
11 10 10 11 12 11 11 11 10 10 9 8 8 7 4 3 1 2 3 4 4 5 5 5 5 6 6 6 6 5 4 2 1 1 2 3 4 6 7 9 11 12 13 14
11 10 11 12 13 12 11 11 11 11 9 7 6 5 3 2 1 3 3 4 5 5 5 5 6 6 6 5 5 5 3 2 1 1 2 3 4 6 8 9 11 13 14 15
12 11 12 13 13 12 11 11 11 11 10 8 6 5 3 2 2 3 3 4 6 6 5 6 5 5 5 4 4 3 3 2 1 1 2 3 5 7 9 11 12 14 16 17
15 14 14 14 13 12 12 11 12 12 12 9 6 5 4 4 3 3 4 5 5 5 5 6 6 6 6 4 4 4 3 2 1 2 3 4 6 8 10 12 14 16 17 19
18 16 15 15 14 14 13 12 12 12 12 11 8 7 7 6 6 5 6 6 6 6 6 7 7 6 6 5 4 4 3 3 3 4 5 6 7 10 12 14 16 18 19 21
19 17 16 15 15 15 14 14 14 14 13 12 10 8 9 8 7 7 7 8 8 7 7 7 7 7 7 6 6 5 4 5 5 5 6 7 9 12 14 17 18 20 21 23
18 18 16 16 16 16 16 15 15 15 15 13 12 10 10 10 9 8 9 9 10 9 9 9 9 9 8 8 7 7 6 7 7 8 9 10 12 14 16 18 20 21 23 24
18 17 17 16 16 17 17 17 17 16 15 14 12 11 11 10 10 10 10 10 10 10 10 11 10 10 9 9 9 8 8 8 9 10 11 13 14 16 18 20 21 23 24 25
18 17 16 16 17 18 18 18 17 16 15 15 13 12 12 12 11 11 11 11 11 11 12 12 12 11 11 10 10 10 10 10 11 12 13 15 16 18 19 21 23 24 25 26
18 18 18 17 18 18 18 18 17 16 15 14 13 13 13 13 12 12 12 13 13 12 13 13 13 12 12 12 12 12 12 12 13 14 15 16 18 19 21 22 24 25 26 27
18 18 20 19 19 19 18 17 17 16 15 14 13 13 14 13 13 13 14 15 14 14 14 14 13 13 13 13 13 13 13 14 15 16 17 18 19 21 22 24 25 26 28 29
19 18 18 19 20 20 15 16 17 17 16 15 14 14 15 15 15 15 15 15 16 15 15 15 15 15 15 15 15 14 14 15 16 17 18 19 21 22 24 25 26 28 29 30
19 20 20 19 19 17 16 17 18 18 17 17 16 15 15 16 17 17 17 17 17 17 17 16 16 16 16 16 16 16 17 17 18 19 20 21 22 24 25 27 28 29 30 31
19 20 20 19 19 17 15 17 19 19 19 18 17 17 18 18 18 17 18 18 18 18 18 17 17 17 18 18 18 18 18 18 19 20 21 22 24 26 27 28 29 31 32 33
19 20 20 19 18 15 15 16 18 19 18 19 19 20 20 20 19 19 19 18 19 19 19 18 18 18 19 19 19 19 19 20 21 22 23 24 26 27 29 30 31 32 33 34
20 20 19 18 17 15 16 17 18 18 18 19 19 20 21 21 22 21 21 20 19 20 20 19 19 20 20 20 20 20 20 22 23 24 25 26 27 29 30 32 33 33 34 35
20 20 20 20 18 17 17 17 18 19 19 20 20 20 21 22 22 23 23 22 21 20 21 20 20 20 20 20 21 22 23 23 24 25 26 27 29 30 32 33 34 35 35 36
20 20 20 20 18 18 19 18 18 19 20 20 20 20 20 21 22 24 24 24 23 22 22 22 21 21 21 22 23 24 25 25 26 26 27 29 31 32 34 35 36 36 36 37
20 20 20 20 20 20 19 19 20 19 20 21 21 21 21 21 22 23 23 23 23 23 22 22 22 22 23 23 23 25 26 27 27 28 30 31 33 34 35 36 37 37 38 39
21 21 21 21 21 20 20 20 20 20 20 21 22 22 22 22 22 24 25 25 22 21 22 22 23 23 23 24 24 26 27 28 29 31 31 33 34 35 36 37 38 38 39 40
Wind_Direction
283 285 291 298 299 299 302 307 311 314 319 321 321 321 324 323 316 299 286 276 272 236 222 220 211 203 208 217 220 216 230 253 267 278 292 303 310 313 313 313 314 313 311 307
274 278 287 290 294 296 300 308 316 317 318 318 317 318 321 327 324 315 304 258 237 214 191 190 194 202 203 209 207 210 223 240 262 289 310 316 321 323 324 324 323 321 317 318
266 270 277 283 289 295 301 309 317 321 322 318 315 319 320 321 319 333 324 199 176 165 170 184 191 188 197 205 199 198 207 225 283 318 329 332 334 333 331 331 329 329 328 326
257 260 267 276 285 293 299 308 314 319 321 318 316 318 319 316 298 315 297 176 167 169 173 191 196 186 190 193 189 190 202 233 291 327 337 341 341 343 341 340 337 336 334 330
251 255 265 275 283 290 297 302 308 315 319 318 316 316 321 309 289 276 232 197 185 182 182 193 193 202 188 188 179 177 175 191 307 1 352 350 351 351 349 348 347 344 340 335
246 255 266 274 280 288 291 294 301 310 317 317 316 313 314 310 276 224 211 202 194 192 197 198 199 201 189 180 170 168 166 146 106 26 353 354 355 355 355 354 350 346 343 339
242 254 266 274 279 283 285 288 295 305 311 316 311 313 313 316 261 198 191 191 192 199 205 208 199 187 179 174 174 174 162 138 114 36 11 5 359 358 358 354 350 348 346 343
242 252 266 276 283 283 281 286 291 300 309 312 304 308 299 292 236 203 198 197 194 204 218 210 184 183 190 193 183 171 154 140 112 53 21 0 355 355 354 353 351 349 346 342
242 251 267 274 279 278 278 280 283 290 296 296 285 285 285 255 223 213 211 202 203 210 215 202 193 190 190 191 182 174 171 168 161 347 340 341 344 347 349 350 348 346 344 341
246 254 263 271 274 272 274 276 276 284 287 278 264 262 269 260 248 242 231 221 214 212 208 202 201 202 204 203 197 195 193 206 262 306 318 329 335 338 341 343 342 341 340 339
250 255 261 265 270 270 270 269 271 273 276 271 259 255 262 265 257 253 249 240 235 228 218 208 202 202 207 211 212 213 221 242 273 295 308 317 324 329 332 335 336 336 336 335
247 253 258 263 265 267 267 266 266 266 266 264 259 259 258 262 261 258 255 248 243 240 228 221 218 217 219 221 224 231 243 258 275 288 301 310 316 322 325 326 329 330 331 331
245 250 254 260 264 266 266 265 262 262 261 257 257 258 258 261 263 264 258 249 245 238 230 228 227 228 230 232 237 245 255 265 277 289 298 306 312 317 320 322 324 326 327 328
244 249 256 262 266 265 264 265 262 258 255 250 249 253 254 254 261 263 256 245 241 237 234 234 235 235 237 240 245 253 263 273 283 291 298 305 310 314 317 320 322 324 325 326
244 251 257 260 262 263 264 264 261 254 248 245 244 247 251 255 259 256 250 242 240 239 239 238 239 241 243 247 253 261 270 278 285 292 298 304 309 313 316 319 321 323 324 325
245 252 255 257 258 263 264 262 258 252 247 244 242 241 248 252 253 253 252 246 242 242 241 240 241 245 249 253 259 266 272 279 286 292 299 305 309 312 315 318 320 321 323 324
249 255 257 257 259 261 263 260 254 253 251 247 244 240 242 246 250 256 256 252 249 247 245 244 246 249 253 258 263 269 276 284 290 295 300 304 307 312 315 318 318 319 321 322
249 254 260 260 260 262 264 257 254 254 250 248 248 245 244 247 250 255 258 254 250 250 249 248 250 254 258 262 267 273 280 286 291 295 299 303 307 311 314 316 317 318 319 320
251 254 259 263 264 264 263 261 257 255 251 250 248 245 247 248 252 255 257 256 254 253 252 252 254 257 261 265 270 275 282 285 291 295 300 304 307 310 313 315 316 317 318 319
250 253 257 262 265 266 264 260 259 258 254 252 250 248 249 250 254 255 256 259 258 257 257 257 259 262 265 267 271 276 283 287 291 295 299 304 307 309 311 312 315 316 317 318
251 252 255 258 263 267 262 258 260 258 256 253 254 252 249 249 251 251 254 258 260 258 259 261 263 265 268 271 273 277 284 288 292 296 300 303 305 307 309 311 314 315 316 317
252 253 255 257 260 263 261 260 259 258 252 251 253 251 248 247 249 251 253 256 260 260 260 262 265 268 270 273 276 280 285 289 292 295 298 301 303 306 308 310 312 314 315 316
250 253 253 255 256 257 258 260 258 256 254 253 253 251 249 249 251 253 253 254 257 260 262 263 267 270 272 275 277 282 285 289 293 295 298 300 303 305 307 309 311 312 313 315
250 254 253 253 252 254 256 256 255 257 258 254 252 253 253 252 252 252 254 255 257 260 261 263 267 270 273 275 279 282 286 289 292 296 298 300 302 304 306 308 309 310 312 313
249 253 255 252 250 252 251 251 251 254 255 251 250 255 258 254 252 254 253 253 257 259 259 262 266 269 273 276 281 284 287 289 293 295 296 298 300 302 304 306 308 309 311 312
251 254 254 253 252 248 247 248 250 252 255 253 253 256 256 255 255 254 250 252 254 256 259 263 266 270 274 278 281 284 286 290 293 294 295 297 299 301 303 304 306 308 310 311
Height
5864 5864 5863 5862 5861 5860 5859 5857 5855 5853 5851 5848 5846 5844 5843 5840 5838 5837 5836 5836 5836 5837 5839 5841 5843 5845 5847 5849 5851 5853 5854 5856 5856 5857 5857 5857 5857 5857 5856 5856 5854 5853 5852 5851
5862 5862 5861 5860 5859 5858 5857 5855 5853 5851 5849 5847 5845 5843 5841 5839 5837 5836 5835 5835 5836 5837 5838 5840 5843 5845 5847 5848 5850 5851 5853 5854 5855 5855 5855 5855 5855 5855 5854 5853 5852 5851 5849 5848
5859 5860 5859 5858 5857 5856 5855 5854 5852 5850 5847 5845 5843 5842 5840 5838 5837 5836 5835 5835 5836 5838 5839 5841 5842 5843 5845 5847 5848 5850 5852 5853 5853 5853 5853 5853 5853 5853 5853 5852 5851 5849 5847 5846
5856 5857 5856 5856 5855 5854 5853 5852 5850 5848 5846 5844 5843 5841 5839 5837 5836 5836 5836 5836 5837 5838 5839 5840 5841 5842 5844 5846 5847 5849 5851 5851 5852 5852 5852 5852 5852 5852 5851 5850 5849 5847 5845 5844
5854 5854 5854 5853 5853 5852 5851 5850 5849 5847 5845 5843 5841 5840 5839 5836 5836 5836 5836 5836 5838 5838 5839 5840 5841 5842 5844 5845 5846 5848 5849 5850 5851 5851 5851 5851 5851 5851 5850 5849 5847 5845 5843 5842
5851 5851 5851 5851 5850 5850 5849 5849 5847 5846 5844 5843 5841 5839 5838 5836 5836 5835 5835 5836 5837 5838 5839 5840 5841 5842 5843 5844 5845 5847 5848 5849 5850 5850 5850 5850 5850 5849 5848 5847 5845 5844 5842 5840
5848 5848 5848 5848 5848 5848 5847 5847 5846 5845 5843 5842 5840 5838 5838 5836 5836 5836 5836 5836 5837 5838 5839 5840 5841 5842 5843 5844 5845 5846 5847 5848 5849 5849 5849 5849 5849 5848 5847 5845 5844 5842 5840 5837
5844 5846 5846 5846 5846 5845 5845 5845 5845 5844 5842 5841 5839 5838 5839 5837 5836 5836 5836 5837 5837 5838 5839 5840 5841 5842 5843 5844 5845 5845 5846 5847 5847 5848 5848 5848 5847 5846 5845 5843 5841 5839 5837 5835
5841 5843 5843 5843 5843 5843 5842 5842 5843 5842 5841 5840 5839 5839 5839 5838 5838 5837 5837 5838 5838 5839 5839 5839 5840 5841 5842 5843 5844 5844 5845 5846 5846 5847 5846 5846 5845 5844 5843 5841 5839 5837 5834 5832
5838 5839 5840 5840 5840 5840 5840 5840 5840 5840 5839 5839 5839 5838 5839 5838 5838 5838 5838 5838 5838 5839 5839 5839 5840 5841 5842 5842 5843 5844 5845 5845 5845 5845 5845 5844 5843 5842 5840 5838 5836 5834 5831 5828
5834 5835 5837 5837 5837 5837 5837 5838 5837 5837 5837 5837 5837 5840 5838 5838 5837 5837 5837 5838 5838 5838 5839 5839 5839 5840 5841 5841 5842 5843 5843 5843 5843 5843 5843 5842 5841 5839 5838 5836 5833 5831 5828 5825
5829 5831 5832 5833 5833 5833 5833 5834 5835 5835 5835 5835 5836 5839 5836 5836 5836 5836 5836 5836 5837 5837 5838 5838 5839 5839 5840 5841 5841 5841 5842 5841 5841 5841 5840 5839 5838 5837 5835 5832 5830 5827 5824 5820
5824 5826 5827 5828 5831 5830 5830 5830 5831 5832 5832 5832 5833 5837 5834 5834 5834 5834 5834 5834 5835 5836 5836 5837 5838 5838 5839 5839 5839 5839 5839 5839 5839 5838 5837 5836 5835 5833 5831 5829 5826 5823 5820 5816
5820 5822 5824 5825 5824 5825 5825 5826 5827 5828 5828 5829 5831 5832 5832 5832 5832 5832 5832 5832 5833 5834 5835 5835 5836 5837 5837 5837 5837 5837 5837 5837 5836 5835 5834 5833 5831 5829 5827 5824 5821 5818 5815 5811
5815 5817 5818 5818 5819 5820 5821 5822 5822 5823 5825 5826 5828 5829 5830 5830 5830 5830 5830 5830 5831 5832 5833 5833 5834 5835 5835 5835 5835 5834 5834 5833 5832 5831 5830 5829 5827 5825 5822 5820 5817 5814 5810 5807
5810 5812 5813 5814 5814 5815 5816 5817 5818 5820 5821 5822 5824 5826 5827 5828 5828 5828 5828 5829 5829 5830 5830 5831 5831 5832 5832 5832 5831 5831 5830 5830 5828 5827 5826 5824 5822 5820 5818 5815 5812 5808 5805 5801
5805 5807 5808 5809 5810 5810 5812 5813 5814 5816 5817 5819 5821 5824 5824 5825 5825 5826 5826 5826 5826 5827 5828 5828 5828 5828 5828 5828 5828 5827 5827 5825 5824 5823 5821 5820 5818 5815 5813 5810 5806 5803 5799 5795
5800 5802 5803 5804 5806 5806 5810 5809 5810 5811 5813 5815 5817 5819 5820 5822 5822 5822 5822 5823 5823 5824 5824 5824 5824 5824 5824 5824 5824 5823 5822 5821 5820 5818 5817 5815 5813 5810 5807 5804 5801 5797 5793 5789
5795 5797 5799 5800 5800 5802 5804 5805 5805 5807 5809 5811 5813 5814 5816 5817 5818 5818 5819 5819 5819 5819 5820 5820 5820 5820 5819 5819 5819 5818 5817 5816 5815 5813 5812 5809 5807 5804 5801 5798 5795 5791 5787 5783
5790 5792 5794 5794 5795 5797 5801 5800 5800 5803 5804 5806 5808 5809 5810 5812 5813 5815 5814 5814 5815 5815 5815 5815 5815 5815 5815 5814 5814 5813 5812 5811 5810 5808 5806 5803 5801 5798 5795 5792 5789 5785 5780 5776
5785 5787 5788 5789 5790 5792 5794 5794 5796 5798 5800 5801 5802 5803 5805 5806 5808 5809 5809 5809 5809 5810 5810 5810 5810 5809 5809 5809 5808 5807 5806 5805 5804 5802 5800 5797 5795 5792 5789 5785 5782 5778 5773 5769
5780 5781 5783 5784 5786 5790 5789 5789 5791 5792 5793 5794 5796 5797 5798 5800 5801 5802 5803 5803 5804 5804 5804 5804 5804 5803 5803 5803 5802 5801 5800 5799 5797 5795 5793 5791 5788 5785 5782 5779 5775 5770 5766 5761
5774 5776 5777 5779 5782 5782 5783 5783 5784 5785 5787 5788 5789 5791 5792 5793 5794 5795 5796 5797 5797 5798 5798 5798 5798 5797 5797 5796 5796 5795 5794 5792 5791 5789 5786 5784 5781 5778 5775 5771 5767 5763 5759 5754
5769 5770 5771 5773 5775 5776 5777 5777 5778 5779 5781 5782 5783 5784 5785 5786 5787 5788 5789 5790 5790 5791 5791 5792 5791 5791 5791 5790 5789 5788 5787 5785 5784 5781 5779 5777 5774 5771 5767 5763 5759 5755 5751 5746
5763 5764 5765 5767 5769 5770 5771 5771 5772 5773 5774 5775 5777 5778 5778 5779 5780 5781 5782 5783 5784 5784 5785 5785 5785 5785 5784 5784 5783 5781 5780 5778 5776 5774 5772 5769 5766 5763 5759 5755 5751 5747 5742 5737
5757 5758 5759 5761 5762 5763 5765 5765 5766 5767 5768 5769 5770 5771 5771 5772 5773 5774 5775 5776 5776 5777 5778 5778 5778 5778 5777 5776 5775 5774 5772 5771 5769 5766 5764 5761 5758 5755 5751 5747 5742 5738 5733 5728